Temperature
7 8 9 9 9 10 10 10 10 10 10 10 10 10 10 10 10 10 10 10 10 10 10 9 9 9 9 9 9 9 8 8 8 8 8 8 8 8 8 8 8 8 8
6 7 8 8 9 9 9 9 9 9 10 10 10 10 10 9 9 9 9 9 9 9 9 9 9 9 9 9 8 8 8 8 8 8 7 7 7 8 8 8 8 8 8
5 6 7 7 8 8 9 9 9 9 9 9 9 9 9 9 9 9 9 9 9 9 9 9 9 8 8 8 8 8 8 8 8 7 7 7 7 7 7 7 7 7 7
4 5 6 7 7 7 8 8 8 8 9 9 8 8 8 9 9 9 8 8 8 8 8 8 8 8 8 8 8 8 8 7 7 7 7 7 7 7 7 7 7 7 7
4 4 5 6 6 7 7 7 8 8 8 8 8 8 8 8 8 8 8 8 8 8 8 8 8 8 7 7 7 7 7 7 7 7 7 7 7 7 7 7 7 7 7
3 4 4 5 6 6 6 7 7 7 7 7 7 7 7 7 7 7 7 7 7 7 7 7 7 7 7 7 7 7 7 7 7 7 7 7 7 7 7 7 7 7 6
2 3 3 4 5 5 5 6 6 6 6 7 7 7 7 7 7 7 7 7 7 7 7 7 7 7 7 7 7 7 7 7 7 7 7 6 6 7 7 7 6 6 6
1 2 3 3 4 4 4 5 5 5 6 6 6 6 6 6 6 6 6 6 7 7 7 6 6 6 6 6 6 6 6 6 6 6 6 6 6 6 6 6 6 6 6
1 1 2 2 3 3 4 4 4 5 5 5 5 5 6 6 5 6 6 6 6 6 6 6 6 6 6 6 6 6 6 6 6 6 6 6 6 6 6 6 6 5 5
-0 0 1 1 2 2 3 3 3 4 4 4 4 4 5 5 5 5 5 5 5 5 5 5 5 5 5 5 5 6 5 5 6 6 6 5 5 5 5 5 5 5 5
-1 -1 -0 0 1 2 2 2 2 3 3 3 4 4 4 4 4 4 4 5 5 5 5 5 5 5 5 5 5 5 5 5 5 5 5 5 5 5 5 5 5 4 4
-1 -1 -1 -0 0 1 1 1 2 2 2 3 3 3 3 3 3 3 4 4 4 4 4 4 4 5 5 5 5 5 5 5 5 5 5 5 5 4 4 4 4 4 4
-2 -1 -1 -1 -0 -0 0 1 1 1 2 2 2 2 2 3 3 3 3 3 3 3 4 4 4 4 4 4 4 4 4 4 4 4 4 4 4 4 4 4 4 4 4
-2 -2 -2 -1 -1 -1 -1 -0 0 1 1 1 1 2 2 2 2 2 2 3 3 3 3 3 3 4 4 4 4 4 4 4 4 4 4 4 4 4 4 4 3 3 3
-3 -3 -3 -2 -2 -1 -1 -1 -0 -0 0 0 1 1 1 1 1 2 2 2 2 2 2 3 3 3 3 3 4 3 3 3 3 3 3 3 3 3 3 3 3 3 3
-4 -4 -3 -3 -3 -2 -2 -2 -1 -1 -1 -0 0 0 1 1 1 1 1 1 1 2 2 2 2 3 3 3 3 3 3 3 3 3 3 3 3 3 3 3 3 3 2
-4 -4 -4 -4 -3 -3 -3 -2 -2 -1 -1 -1 -1 -0 -0 0 0 1 1 1 1 1 1 2 2 2 2 2 2 2 2 2 2 2 2 2 2 2 2 2 2 2 2
-4 -4 -4 -4 -4 -3 -3 -3 -2 -2 -2 -1 -1 -1 -1 -1 -0 0 1 1 1 1 1 1 1 1 2 2 2 2 2 2 2 2 2 2 2 2 2 2 2 2 2
-5 -5 -5 -4 -4 -4 -3 -3 -3 -2 -2 -2 -2 -1 -1 -1 -1 -0 0 0 0 0 0 1 1 1 1 1 1 1 1 1 1 1 1 1 1 2 1 1 1 1 1
-5 -5 -5 -5 -4 -4 -4 -3 -3 -3 -3 -3 -2 -2 -2 -2 -1 -1 -1 -0 -0 -0 0 0 0 0 1 1 1 1 1 1 1 1 1 1 1 1 1 1 1 1 1
-5 -5 -5 -5 -5 -4 -4 -4 -4 -4 -4 -3 -3 -2 -2 -2 -2 -2 -1 -1 -1 -1 -0 -0 -0 0 0 0 0 0 0 0 0 0 0 0 0 0 1 1 1 1 1
-5 -5 -5 -5 -5 -5 -4 -4 -4 -4 -4 -4 -3 -3 -3 -2 -2 -2 -2 -1 -1 -1 -1 -1 -1 -1 -1 -0 -0 -0 -0 -0 -0 -0 -0 -0 -0 0 0 0 0 -0 -0
-6 -6 -6 -6 -5 -5 -5 -5 -5 -5 -4 -4 -4 -3 -3 -3 -2 -2 -2 -2 -2 -2 -2 -2 -2 -2 -1 -1 -1 -1 -1 -1 -1 -1 -1 -1 -0 -0 -0 -1 -1 -1 -1
-6 -6 -6 -6 -6 -5 -5 -5 -5 -5 -5 -5 -4 -4 -4 -3 -3 -3 -3 -3 -2 -2 -2 -3 -2 -2 -2 -2 -2 -2 -2 -1 -1 -1 -1 -1 -1 -1 -1 -1 -1 -1 -1
-7 -7 -7 -6 -6 -6 -6 -6 -6 -6 -5 -5 -5 -5 -4 -4 -4 -3 -3 -3 -3 -3 -3 -3 -3 -3 -3 -3 -2 -2 -2 -2 -2 -2 -2 -2 -2 -2 -2 -2 -2 -2 -2
-7 -7 -7 -7 -7 -6 -6 -6 -6 -6 -6 -6 -5 -5 -5 -5 -5 -4 -4 -4 -4 -4 -3 -3 -3 -3 -3 -3 -3 -3 -3 -3 -2 -2 -2 -2 -2 -2 -2 -2 -2 -2 -2
Wind_Speed
1 2 2 3 3 3 3 3 3 4 4 3 3 3 2 2 2 2 4 5 6 7 6 4 5 5 4 5 6 4 5 3 3 3 3 3 2 2 2 3 3 3 4
3 3 3 3 2 2 2 2 3 3 4 3 2 2 2 2 1 2 3 4 5 6 6 5 4 5 5 5 5 5 4 2 3 3 3 1 1 1 2 2 2 2 3
1 2 2 2 2 1 1 1 2 2 3 3 3 3 3 2 1 1 1 2 5 6 6 6 6 5 5 6 5 6 6 4 2 2 3 3 3 1 1 0 1 1 1
2 1 1 2 1 1 1 1 1 2 2 3 4 4 3 2 3 2 2 2 4 5 6 6 6 5 4 5 6 5 4 6 4 2 1 2 3 3 1 1 0 0 1
2 1 1 1 1 2 1 1 1 1 2 3 4 4 3 2 1 1 2 2 2 3 5 6 6 5 4 5 5 5 5 4 5 4 2 2 2 2 2 2 1 1 1
3 3 3 3 3 3 3 2 2 1 1 2 3 4 4 3 3 3 3 2 2 2 4 5 6 6 5 5 5 6 6 5 5 4 3 3 3 3 2 2 2 2 2
3 3 4 4 3 3 3 3 2 2 1 1 2 3 4 4 4 4 4 3 2 3 4 4 4 5 5 6 6 5 5 6 6 6 4 3 3 3 3 3 2 2 2
5 4 4 3 3 3 3 2 2 2 1 0 1 2 2 2 2 3 3 3 3 3 3 4 5 5 6 6 6 4 5 5 6 6 5 3 3 3 3 3 3 1 1
6 6 5 5 4 3 3 2 2 2 2 1 1 1 2 2 2 2 2 2 2 2 3 4 4 5 6 6 6 5 5 5 6 6 5 4 3 3 3 3 4 4 3
6 6 6 6 5 4 4 3 3 2 2 2 1 1 1 1 2 2 3 3 3 2 3 3 4 4 5 5 5 4 5 6 5 5 6 5 3 3 3 3 3 3 4
5 5 6 5 5 5 4 4 3 3 3 2 1 1 1 1 1 2 3 3 3 3 3 4 4 5 5 5 6 6 6 6 6 5 6 6 5 4 3 3 3 3 3
5 5 5 6 6 5 5 4 4 3 3 3 2 1 1 1 1 2 2 3 3 3 4 4 4 5 5 5 6 7 6 7 7 7 6 6 5 5 4 4 4 4 4
6 6 6 6 6 6 5 5 5 4 4 3 2 2 1 1 2 2 2 2 3 3 4 4 5 5 5 5 6 6 6 7 7 7 7 7 7 6 5 5 5 4 3
6 6 6 6 6 6 6 5 5 5 4 4 3 2 2 2 2 3 3 3 3 4 4 4 5 5 5 5 6 6 6 6 6 6 6 7 7 7 7 6 6 5 4
7 7 6 6 6 6 6 6 5 5 4 4 3 3 3 3 3 3 3 3 3 4 4 4 4 4 4 5 6 6 6 6 5 5 5 6 7 8 7 6 6 6 5
7 7 7 7 7 7 6 6 6 5 4 4 3 3 3 3 3 3 3 3 3 3 3 4 4 4 4 6 7 6 5 5 6 5 5 5 6 7 8 8 8 8 7
6 7 7 6 7 6 6 6 6 5 5 4 4 4 3 4 4 3 2 2 3 3 3 4 4 4 5 6 6 6 4 4 5 5 5 4 4 6 5 6 6 6 8
6 6 6 6 6 6 6 6 5 5 5 5 4 4 4 4 4 3 3 3 2 2 3 3 4 3 4 5 6 6 4 3 4 4 5 5 5 5 6 5 4 4 4
6 5 5 5 5 6 6 5 5 6 6 6 5 5 4 4 4 3 3 3 2 2 2 2 3 3 3 4 5 5 3 3 3 4 4 5 5 7 7 6 5 4 3
5 5 5 5 5 6 5 5 5 5 6 6 6 5 4 4 4 4 3 2 2 1 1 1 1 2 2 3 3 4 3 3 3 3 3 5 6 7 7 6 6 5 4
6 5 4 4 5 5 5 5 5 6 6 6 6 5 5 4 3 2 2 1 1 0 0 0 0 1 1 2 2 3 3 4 3 3 3 3 6 7 7 6 5 6 4
7 5 4 5 5 5 5 6 6 7 6 6 6 6 5 4 3 1 1 1 1 1 1 1 0 0 0 1 1 2 3 3 3 3 3 3 5 6 6 5 5 6 4
7 5 5 5 5 5 4 5 7 7 6 6 6 6 6 4 3 2 1 1 1 1 1 1 1 0 0 0 1 2 2 2 2 3 4 4 5 4 3 4 5 4 3
6 6 5 6 6 6 6 5 6 6 5 6 6 5 5 5 4 3 2 1 0 1 1 1 1 1 0 1 1 1 1 1 1 1 3 3 3 2 3 3 2 2 2
6 6 5 6 6 7 6 6 6 5 5 5 5 5 5 5 4 3 2 2 1 1 1 1 2 2 2 2 2 1 1 1 2 2 1 1 2 1 1 1 1 1 1
6 6 6 6 6 6 7 6 6 5 5 5 5 4 4 4 4 3 4 5 4 4 3 2 1 2 2 2 1 1 0 1 3 2 2 2 2 2 2 2 1 1 1
Wind_Direction
328 43 61 74 75 78 100 124 132 137 136 135 140 137 143 142 141 147 158 162 162 160 156 149 147 150 154 156 150 139 133 125 125 103 73 38 42 57 57 73 87 88 94
6 22 40 52 73 88 96 122 141 147 155 156 151 143 135 136 144 140 144 162 167 168 167 156 158 161 156 154 158 147 143 137 150 134 125 102 13 12 40 56 84 83 92
334 355 26 37 47 55 109 148 154 150 153 144 124 104 85 75 90 140 169 172 174 174 171 169 162 167 166 171 172 167 158 160 168 147 149 154 196 239 342 40 69 94 87
336 359 17 22 12 338 19 106 131 143 146 142 153 159 167 180 194 189 189 173 177 178 178 174 168 169 170 173 180 176 171 162 171 159 114 133 148 150 177 302 317 103 154
331 337 340 342 1 10 33 67 111 120 139 153 166 171 178 181 160 149 171 188 182 184 184 179 172 175 178 178 177 176 177 173 172 168 157 123 87 118 154 207 254 281 256
358 7 12 31 26 25 33 40 65 70 127 159 174 180 181 173 166 180 190 200 195 187 195 187 183 181 180 183 186 183 182 183 174 171 168 162 162 175 159 179 220 241 266
15 21 24 25 20 21 23 27 42 32 43 153 188 194 191 185 191 199 201 203 203 205 206 200 193 188 184 181 180 181 187 184 180 184 186 179 176 166 159 155 179 228 273
10 10 16 20 19 14 17 24 24 15 13 16 223 203 187 186 200 204 205 209 215 218 201 198 197 189 181 180 178 184 192 185 188 191 185 180 184 172 166 163 159 179 271
8 6 10 12 14 7 1 4 9 3 357 344 306 215 191 191 196 201 205 213 214 211 192 196 199 192 184 182 177 189 195 187 193 192 188 188 189 182 172 161 167 171 209
5 7 8 6 3 0 358 10 10 351 342 344 329 293 248 215 201 193 203 210 208 206 196 195 198 195 189 183 182 189 192 189 196 191 187 193 188 183 176 171 174 175 188
359 2 3 1 3 7 8 7 5 356 350 341 332 324 289 247 216 213 216 216 213 208 211 206 197 198 196 188 188 195 192 196 197 192 192 198 187 187 187 179 176 181 177
6 5 2 4 7 7 4 359 353 348 341 333 323 301 291 263 237 246 240 216 216 215 214 210 201 204 200 193 194 198 197 198 201 198 194 201 194 194 191 191 195 195 190
7 8 6 2 358 357 355 352 348 343 338 330 316 307 306 281 262 255 252 235 225 222 216 210 209 208 206 200 198 198 198 200 203 199 198 201 195 201 198 195 199 199 195
2 3 0 355 353 352 348 344 346 343 338 332 322 310 298 279 268 259 248 242 231 229 221 217 214 208 206 205 201 197 197 199 202 201 201 200 201 204 199 199 198 191 188
354 354 352 350 350 349 346 343 341 341 339 335 326 315 312 301 288 274 257 244 235 232 222 218 218 209 207 205 198 196 193 196 201 202 205 206 204 204 203 202 195 187 189
341 343 346 346 345 341 339 339 337 332 335 333 324 322 318 311 295 283 261 246 237 231 221 221 218 216 218 205 201 197 192 196 200 204 208 209 206 207 207 207 200 191 192
328 331 333 332 331 331 332 332 330 330 333 333 334 330 320 309 300 295 280 259 246 232 227 224 213 213 211 204 200 198 197 195 200 203 204 207 211 207 203 206 207 210 211
321 322 326 328 329 331 335 336 339 341 340 336 336 333 322 311 306 302 289 271 250 229 231 225 214 209 213 203 201 195 198 195 201 201 200 202 209 206 190 183 193 210 217
313 315 318 319 324 333 337 341 345 346 344 338 332 326 322 314 310 304 292 279 257 239 239 226 204 201 221 213 208 197 191 195 205 208 201 201 206 207 193 184 190 200 213
323 324 328 334 336 336 339 346 344 343 335 328 322 322 318 310 301 289 282 279 262 250 244 230 198 194 208 208 208 201 193 194 203 205 206 208 210 208 201 195 194 204 211
331 332 335 341 337 336 343 343 341 332 324 325 328 330 325 314 302 292 287 273 247 210 187 220 198 179 195 197 204 208 201 194 195 205 212 211 211 212 212 209 205 208 193
342 348 347 340 338 341 344 340 333 327 330 334 336 338 336 331 326 331 330 348 139 147 177 182 138 54 189 197 204 212 218 202 195 210 216 212 209 215 214 213 205 195 181
339 343 342 336 336 339 340 334 328 335 339 342 343 342 343 347 346 5 15 23 96 152 203 191 185 245 346 249 247 230 225 221 214 205 205 210 206 201 202 204 198 190 186
338 340 340 338 334 335 337 333 333 337 342 343 343 344 350 351 356 359 4 12 27 207 210 215 206 214 296 307 268 239 228 216 212 191 183 183 184 183 180 183 186 182 188
338 340 339 333 328 330 334 340 340 341 341 343 345 345 347 347 349 356 356 338 319 279 251 225 207 197 220 254 273 262 225 200 187 162 151 150 156 164 155 144 141 145 157
338 340 341 338 335 337 338 340 340 341 341 343 345 345 345 347 352 356 359 2 1 358 357 353 303 260 255 256 262 273 232 171 153 148 157 170 173 175 177 175 169 171 186
Height
1480 1482 1483 1485 1487 1489 1492 1494 1497 1499 1502 1504 1506 1508 1511 1513 1516 1518 1520 1522 1523 1525 1527 1529 1531 1533 1535 1537 1539 1541 1543 1545 1547 1549 1550 1552 1553 1555 1556 1557 1557 1558 1559
1478 1479 1481 1483 1485 1487 1489 1492 1494 1497 1499 1501 1504 1506 1508 1510 1513 1515 1517 1519 1521 1523 1524 1526 1528 1530 1532 1534 1536 1538 1540 1542 1544 1546 1548 1549 1552 1551 1553 1554 1555 1556 1557
1477 1477 1479 1480 1482 1484 1487 1489 1491 1494 1496 1499 1501 1503 1505 1508 1510 1512 1514 1516 1518 1520 1521 1523 1525 1527 1529 1531 1533 1535 1537 1539 1541 1544 1546 1547 1547 1549 1550 1551 1552 1553 1554
1476 1476 1477 1478 1480 1482 1485 1487 1489 1491 1493 1496 1498 1500 1502 1504 1506 1509 1511 1513 1515 1516 1518 1520 1522 1524 1526 1528 1530 1532 1534 1536 1538 1541 1543 1545 1545 1546 1547 1549 1549 1550 1551
1475 1475 1476 1477 1479 1480 1482 1484 1486 1488 1490 1493 1495 1497 1499 1501 1503 1506 1507 1509 1511 1513 1515 1517 1519 1521 1523 1525 1527 1529 1531 1533 1535 1537 1539 1541 1542 1543 1545 1545 1546 1548 1548
1474 1474 1475 1476 1477 1478 1480 1481 1483 1485 1487 1489 1491 1493 1495 1497 1500 1502 1504 1506 1508 1510 1512 1514 1516 1518 1520 1522 1523 1525 1527 1529 1531 1533 1535 1537 1539 1540 1541 1542 1543 1544 1545
1473 1473 1473 1474 1475 1476 1477 1479 1481 1482 1484 1486 1488 1490 1492 1494 1496 1498 1500 1502 1504 1506 1508 1510 1512 1514 1516 1518 1520 1522 1524 1525 1527 1529 1531 1533 1535 1537 1538 1540 1540 1541 1542
1473 1473 1473 1473 1474 1475 1476 1477 1478 1480 1481 1483 1485 1487 1488 1490 1492 1494 1496 1498 1500 1502 1504 1506 1508 1510 1512 1514 1516 1518 1519 1521 1523 1525 1527 1529 1531 1533 1534 1536 1538 1538 1539
1473 1473 1473 1473 1473 1474 1475 1475 1476 1477 1479 1480 1482 1483 1485 1487 1488 1490 1492 1494 1496 1498 1500 1502 1504 1506 1508 1509 1511 1513 1515 1517 1519 1521 1523 1525 1527 1529 1530 1532 1534 1536 1535
1474 1473 1472 1472 1473 1473 1474 1474 1475 1476 1476 1477 1479 1480 1482 1483 1485 1487 1488 1490 1492 1494 1496 1497 1499 1501 1503 1505 1507 1509 1511 1513 1514 1516 1518 1520 1522 1524 1526 1527 1529 1530 1532
1475 1474 1473 1473 1472 1472 1473 1473 1473 1474 1474 1475 1476 1477 1478 1480 1482 1483 1484 1486 1487 1489 1491 1493 1495 1496 1498 1500 1502 1504 1506 1508 1509 1511 1513 1515 1517 1519 1521 1523 1524 1526 1527
1476 1475 1474 1473 1472 1471 1471 1471 1472 1472 1472 1473 1474 1474 1475 1477 1478 1479 1480 1482 1483 1485 1486 1488 1490 1492 1493 1495 1497 1499 1501 1503 1505 1507 1509 1510 1513 1514 1516 1518 1519 1521 1522
1476 1474 1473 1472 1471 1471 1470 1470 1470 1470 1470 1471 1471 1472 1472 1473 1474 1475 1477 1478 1479 1480 1482 1484 1485 1487 1489 1490 1492 1494 1496 1498 1500 1502 1504 1505 1507 1509 1511 1512 1514 1516 1517
1476 1475 1474 1472 1471 1470 1470 1469 1468 1468 1468 1468 1468 1469 1469 1470 1471 1472 1473 1474 1475 1476 1477 1479 1481 1482 1484 1486 1487 1489 1491 1493 1495 1497 1499 1500 1502 1504 1505 1507 1509 1511 1512
1477 1475 1473 1472 1471 1470 1469 1468 1467 1467 1466 1466 1466 1466 1466 1467 1467 1468 1468 1469 1470 1472 1473 1474 1476 1477 1479 1481 1482 1484 1486 1488 1490 1492 1494 1495 1497 1499 1501 1502 1503 1505 1507
1477 1475 1473 1471 1470 1469 1468 1466 1465 1464 1464 1463 1463 1463 1463 1463 1464 1464 1465 1465 1466 1467 1468 1470 1471 1472 1474 1476 1478 1480 1481 1483 1485 1486 1488 1490 1492 1494 1496 1497 1499 1500 1502
1477 1475 1473 1471 1470 1468 1466 1465 1463 1462 1461 1461 1460 1460 1460 1460 1460 1460 1461 1461 1462 1463 1464 1465 1466 1467 1469 1471 1473 1475 1477 1478 1480 1482 1484 1485 1487 1489 1491 1492 1494 1495 1497
1477 1474 1472 1470 1469 1467 1465 1464 1462 1460 1459 1458 1457 1457 1456 1456 1456 1456 1457 1457 1458 1458 1459 1460 1462 1463 1465 1467 1468 1470 1472 1473 1475 1477 1479 1481 1482 1484 1486 1487 1489 1490 1492
1476 1474 1471 1470 1468 1466 1464 1462 1460 1459 1457 1456 1455 1454 1454 1453 1452 1452 1452 1453 1454 1454 1455 1456 1458 1459 1460 1463 1464 1466 1467 1469 1471 1473 1475 1476 1478 1479 1481 1483 1484 1485 1487
1474 1472 1470 1468 1466 1464 1463 1460 1458 1457 1456 1454 1453 1452 1451 1450 1449 1449 1449 1449 1450 1451 1451 1452 1453 1455 1456 1458 1460 1462 1463 1464 1466 1468 1470 1472 1473 1475 1476 1478 1479 1480 1481
1472 1469 1467 1466 1464 1463 1461 1459 1457 1455 1454 1452 1451 1449 1448 1447 1446 1445 1446 1446 1446 1447 1448 1449 1449 1451 1453 1454 1456 1458 1459 1460 1462 1464 1465 1467 1469 1470 1472 1473 1474 1475 1477
1469 1467 1465 1464 1463 1461 1459 1457 1455 1454 1452 1450 1448 1447 1445 1444 1443 1442 1442 1443 1443 1443 1444 1445 1446 1447 1449 1451 1452 1454 1455 1456 1458 1459 1461 1462 1464 1466 1467 1468 1470 1471 1473
1468 1466 1464 1463 1462 1460 1458 1456 1454 1452 1450 1448 1446 1445 1444 1442 1441 1440 1440 1440 1440 1441 1441 1442 1443 1444 1446 1447 1449 1450 1451 1452 1454 1455 1456 1458 1460 1462 1463 1464 1465 1467 1468
1467 1465 1464 1462 1460 1459 1457 1455 1453 1451 1449 1447 1445 1444 1442 1441 1440 1439 1439 1438 1438 1438 1439 1440 1441 1442 1443 1444 1445 1446 1447 1448 1450 1451 1452 1454 1455 1457 1458 1459 1460 1462 1463
1467 1465 1463 1461 1459 1457 1456 1454 1452 1450 1448 1446 1444 1443 1441 1440 1439 1438 1438 1437 1437 1437 1437 1438 1439 1439 1440 1442 1443 1443 1444 1445 1446 1447 1449 1450 1451 1452 1453 1454 1456 1457 1458
1466 1464 1461 1460 1458 1456 1454 1452 1451 1449 1446 1444 1443 1442 1440 1439 1438 1437 1436 1436 1436 1436 1436 1436 1437 1438 1439 1440 1440 1441 1442 1442 1443 1444 1445 1446 1447 1448 1449 1450 1451 1452 1454